Stations météo

Publicité
Lulea/Kallax, Suède (2186): Température de l'air & dewpoint: 14.01.2020 11:00:00 - 20.01.2020 11:00:00 (CET)Lulea/Kallax, Suède (2186): Vitesse du vent & gusts: 14.01.2020 11:00:00 - 20.01.2020 11:00:00 (CET)Lulea/Kallax, Suède (2186): Direction du vent: 14.01.2020 11:00:00 - 20.01.2020 11:00:00 (CET)Lulea/Kallax, Suède (2186): reduced air pressure: 14.01.2020 11:00:00 - 20.01.2020 11:00:00 (CET)Lulea/Kallax, Suède (2186): visibility: 14.01.2020 11:00:00 - 20.01.2020 11:00:00 (CET)Lulea/Kallax, Suède (2186): Quantités de précipitations: 14.01.2020 11:00:00 - 20.01.2020 11:00:00 (CET)
Date & Time tt [°C] td [°C] ff [km/h] ff [knt] fx [km/h] fx [knt] dd ppp [hPa] vv [km] rr [mm]
20.01.2020 11:00:00 0,0 -1,0 11 6 - - S - 10 -
20.01.2020 10:00:00 0,4 -0,6 16 9 25 14 SSW 1005,3 10 0,0
20.01.2020 09:00:00 0,0 -1,1 18 10 29 16 S 1005,4 10 0,0
20.01.2020 08:00:00 -0,2 -1,3 11 6 22 12 S 1006,0 10 0,0
20.01.2020 07:00:00 -0,4 -1,2 11 6 22 12 S 1007,3 10 0,0
20.01.2020 06:00:00 -0,7 -1,3 16 9 29 16 S 1008,8 10 0,2
20.01.2020 05:00:00 -1,5 -2,8 13 7 22 12 S 1010,6 10 0,0
20.01.2020 04:00:00 -3,2 -4,3 9 5 14 8 SW 1012,9 10 0,0
20.01.2020 03:00:00 -4,2 -5,2 9 5 14 8 S 1014,5 10 0,0
20.01.2020 02:00:00 -4,4 -5,4 15 8 22 12 SSW 1015,4 10 0,0
20.01.2020 01:00:00 -4,8 -5,8 13 7 18 10 SSW 1016,3 10 0,0
20.01.2020 00:00:00 -5,9 -6,8 9 5 14 8 SSW 1017,0 10 0,0
19.01.2020 23:00:00 -6,6 -7,7 9 5 18 10 S 1018,6 10 0,0
19.01.2020 22:00:00 -6,3 -7,7 4 2 7 4 WSW 1019,4 10 0,0
19.01.2020 21:00:00 -6,3 -7,8 11 6 18 10 W 1019,2 10 0,0
19.01.2020 20:00:00 -6,6 -8,0 5 3 25 14 WNW 1018,9 10 0,0
19.01.2020 19:00:00 -4,8 -6,6 18 10 25 14 WNW 1019,8 10 0,0
19.01.2020 18:00:00 -4,5 -6,3 13 7 22 12 WNW 1019,1 10 0,0
19.01.2020 17:00:00 -4,8 -6,2 11 6 18 10 NW 1018,0 10 0,0
19.01.2020 16:00:00 -4,7 -6,4 13 7 29 16 NW 1017,8 10 0,0
19.01.2020 15:00:00 -4,6 -6,3 21 11 32 18 NNW 1016,7 10 0,0
19.01.2020 14:00:00 -4,6 -6,3 26 14 32 18 NW 1015,8 10 0,0
19.01.2020 13:00:00 -5,4 -6,9 21 11 29 16 NNW 1014,2 10 0,0
19.01.2020 12:00:00 -6,9 -8,3 16 9 25 14 NNW 1012,4 10 0,0
19.01.2020 11:00:00 -6,5 -7,9 21 11 32 18 NNW 1011,8 10 0,0
19.01.2020 10:00:00 -5,8 -7,3 26 14 36 19 NNW 1010,6 10 0,0
19.01.2020 09:00:00 -5,6 -7,1 24 13 36 19 NNW 1009,5 10 0,0
19.01.2020 08:00:00 -4,9 -6,4 24 13 36 19 NNW 1008,0 10 0,0
19.01.2020 07:00:00 -5,0 -6,5 22 12 32 18 NNW 1006,8 10 0,0
19.01.2020 06:00:00 -5,1 -6,6 24 13 32 18 NNW 1005,9 10 0,0
19.01.2020 05:00:00 -5,3 -6,5 24 13 32 18 NNW 1005,0 4,5 0,2
19.01.2020 04:00:00 -5,7 -6,6 22 12 36 19 NNW 1004,5 3,2 0,3
19.01.2020 03:00:00 -5,4 -6,6 22 12 32 18 NNW 1004,0 6 0,1
19.01.2020 02:00:00 -5,6 -6,8 24 13 32 18 NNW 1003,6 10 0,0
19.01.2020 01:00:00 -5,8 -7,0 21 11 32 18 NNW 1003,2 10 0,0
19.01.2020 00:00:00 -5,9 -6,8 21 11 25 14 NNW 1003,2 2,7 0,3
18.01.2020 23:00:00 -6,0 -6,9 18 10 29 16 NNW 1003,0 8 0,0
18.01.2020 22:00:00 -6,1 -7,2 18 10 29 16 NNW 1002,8 3,9 0,2
18.01.2020 21:00:00 -6,1 -7,0 22 12 32 18 NNW 1002,6 2,3 0,2
18.01.2020 20:00:00 -6,0 -6,9 24 13 32 18 N 1002,7 4,0 0,5
18.01.2020 19:00:00 -5,7 -6,6 22 12 32 18 N 1002,7 1,9 0,9
18.01.2020 18:00:00 -5,6 -6,4 22 12 32 18 N 1002,6 1,5 1,0
18.01.2020 17:00:00 -5,6 -6,4 21 11 32 18 N 1002,6 1,4 0,8
18.01.2020 16:00:00 -5,6 -6,6 21 11 29 16 N 1002,9 1,0 0,8
18.01.2020 15:00:00 -5,6 -6,4 18 10 25 14 N 1003,0 1,8 0,4
18.01.2020 14:00:00 -5,6 -6,4 18 10 25 14 N 1003,4 1,7 0,5
18.01.2020 13:00:00 -5,8 -6,6 13 7 22 12 N 1003,9 1,9 0,3
18.01.2020 12:00:00 -5,9 -6,7 15 8 22 12 N 1004,3 1,4 0,3
18.01.2020 11:00:00 -6,1 -6,9 15 8 22 12 N 1004,8 1,9 0,2
18.01.2020 10:00:00 -6,3 -7,2 13 7 22 12 N 1005,5 2,5 0,1
18.01.2020 09:00:00 -6,6 -7,5 13 7 22 12 N 1005,8 4,0 0,0
18.01.2020 08:00:00 -6,9 -8,0 16 9 25 14 N 1006,1 3,5 0,0
18.01.2020 07:00:00 -7,2 -8,1 15 8 22 12 NNW 1006,6 5 0,0
18.01.2020 06:00:00 -7,2 -8,1 11 6 22 12 N 1007,2 3,9 0,0
18.01.2020 05:00:00 -7,2 -8,1 11 6 18 10 N 1007,9 5 0,1
18.01.2020 04:00:00 -7,3 -8,2 11 6 18 10 N 1008,4 3,6 0,0
18.01.2020 03:00:00 -7,4 -8,5 11 6 18 10 N 1009,1 2,7 0,2
18.01.2020 02:00:00 -7,5 -8,4 9 5 14 8 N 1009,7 2,6 0,1
18.01.2020 01:00:00 -7,6 -8,5 9 5 14 8 N 1010,1 1,7 0,2
18.01.2020 00:00:00 -7,7 -8,9 8 4 18 10 N 1010,5 10 0,0
17.01.2020 23:00:00 -7,8 -9,0 8 4 18 10 NNE 1011,0 10 0,0
17.01.2020 22:00:00 -8,0 -9,3 8 4 14 8 NNE 1011,5 10 0,0
17.01.2020 21:00:00 -8,1 -9,6 9 5 18 10 NNE 1012,0 10 0,0
17.01.2020 20:00:00 -8,1 -9,7 8 4 18 10 NNE 1011,8 10 0,0
17.01.2020 19:00:00 -8,2 -9,8 9 5 22 12 NNE 1012,0 10 0,0
17.01.2020 18:00:00 -8,2 -9,8 9 5 14 8 N 1012,5 10 0,0
17.01.2020 17:00:00 -8,2 -9,8 9 5 14 8 N 1012,6 10 0,0
17.01.2020 16:00:00 -8,0 -9,8 5 3 11 6 N 1012,6 10 0,0
17.01.2020 15:00:00 -8,6 -10,1 5 3 7 4 N 1012,6 10 0,0
17.01.2020 14:00:00 -8,0 -9,6 5 3 18 10 N 1011,9 10 0,0
17.01.2020 13:00:00 -7,9 -9,7 9 5 18 10 N 1011,1 10 0,0
17.01.2020 12:00:00 -7,2 -8,6 9 5 18 10 N 1010,7 10 0,0
17.01.2020 11:00:00 -7,4 -8,5 11 6 18 10 N 1009,9 10 0,0
17.01.2020 10:00:00 -7,6 -8,7 8 4 22 12 N 1009,4 10 0,0
17.01.2020 09:00:00 -9,2 -10,1 9 5 18 10 N 1008,3 10 0,0
17.01.2020 08:00:00 -10,3 -11,3 8 4 22 12 N 1007,2 10 0,0
17.01.2020 07:00:00 -9,0 -9,8 13 7 22 12 N 1006,2 4,0 0,0
17.01.2020 06:00:00 -10,3 -11,2 8 4 11 6 N 1005,4 10 0,0
17.01.2020 05:00:00 -10,7 -11,7 5 3 11 6 N 1004,2 10 0,0
17.01.2020 04:00:00 -9,9 -10,8 4 2 7 4 NNW 1003,9 10 0,0
17.01.2020 03:00:00 -9,2 -10,1 5 3 7 4 NNW 1003,5 10 0,0
17.01.2020 02:00:00 -8,3 -9,1 8 4 11 6 NNW 1002,9 10 0,0
17.01.2020 01:00:00 -6,8 -7,5 0 0 7 4 N 1002,4 10 0,0
17.01.2020 00:00:00 -5,7 -6,4 4 2 7 4 - 1002,1 10 0,0
16.01.2020 23:00:00 -3,4 -3,9 8 4 18 10 SSW 1001,8 10 0,0
16.01.2020 22:00:00 -2,8 -3,2 11 6 18 10 SSW 1001,9 10 0,0
16.01.2020 21:00:00 -2,8 -3,2 9 5 22 12 SW 1002,0 10 0,0
16.01.2020 20:00:00 -4,4 -5,1 9 5 14 8 S 1002,3 3,5 0,0
16.01.2020 19:00:00 -5,9 -6,6 9 5 11 6 SE 1002,8 10 0,0
16.01.2020 18:00:00 -7,1 -7,9 2 1 11 6 - 1002,9 10 0,0
16.01.2020 17:00:00 -7,5 -8,2 5 3 11 6 SE 1003,2 10 0,0
16.01.2020 16:00:00 -8,6 -9,5 5 3 7 4 SW 1003,7 10 0,0
16.01.2020 15:00:00 -8,7 -9,6 2 1 7 4 - 1003,1 10 0,0
16.01.2020 14:00:00 -7,6 -8,7 2 1 7 4 N 1002,5 10 0,0
16.01.2020 13:00:00 -7,6 -8,5 4 2 11 6 - 1002,6 10 0,0
16.01.2020 12:00:00 -8,1 -9,0 5 3 11 6 N 1001,8 10 0,0
16.01.2020 11:00:00 -9,3 -10,4 5 3 11 6 N 1001,0 10 0,0
16.01.2020 10:00:00 -9,9 -11,0 5 3 11 6 NW 1000,5 10 0,0
16.01.2020 09:00:00 -9,0 -10,1 4 2 11 6 - 999,2 10 0,0
16.01.2020 08:00:00 -8,4 -9,5 8 4 14 8 N 998,2 10 0,0
16.01.2020 07:00:00 -8,0 -9,1 9 5 14 8 N 997,4 10 0,0
16.01.2020 06:00:00 -7,7 -8,8 9 5 14 8 NNW 997,0 10 0,0
16.01.2020 05:00:00 -7,2 -8,1 11 6 18 10 NNW 996,1 10 0,0
16.01.2020 04:00:00 -7,0 -7,9 15 8 22 12 N 995,5 2,0 0,1
16.01.2020 03:00:00 -6,9 -7,7 9 5 22 12 N 995,2 9 0,0
16.01.2020 02:00:00 -6,6 -7,4 13 7 18 10 NNW 994,2 4,4 0,0
16.01.2020 01:00:00 -6,5 -7,2 11 6 22 12 N 993,2 5 0,0
16.01.2020 00:00:00 -6,7 -7,4 8 4 14 8 N 992,0 10 0,0
15.01.2020 23:00:00 -6,7 -7,5 11 6 18 10 N 991,3 10 0,0
15.01.2020 22:00:00 -5,9 -6,6 8 4 14 8 NNE 990,2 10 0,0
15.01.2020 21:00:00 -4,8 -5,5 13 7 18 10 N 988,7 10 0,0
15.01.2020 20:00:00 -3,6 -4,0 9 5 14 8 NNW 987,5 5 0,0
15.01.2020 19:00:00 -3,8 -4,1 8 4 11 6 NNW 986,4 1,0 0,0
15.01.2020 18:00:00 -3,3 -3,6 9 5 11 6 WNW 985,3 0,4 0,0
15.01.2020 17:00:00 -2,0 -2,3 4 2 7 4 WNW 984,5 0,3 0,0
15.01.2020 16:00:00 -1,3 -1,6 0 0 7 4 N 983,7 0,2 0,0
15.01.2020 15:00:00 -1,2 -1,5 2 1 7 4 - 983,2 0,2 0,0
15.01.2020 14:00:00 -1,3 -1,6 0 0 7 4 N 983,4 0,2 0,0
15.01.2020 13:00:00 -0,8 -1,1 5 3 11 6 SSW 983,3 0,9 0,0
15.01.2020 12:00:00 -2,4 -2,7 5 3 14 8 S 983,1 8 0,0
15.01.2020 11:00:00 -1,9 -2,2 5 3 18 10 SSE 983,8 10 0,0
15.01.2020 10:00:00 -3,8 -4,1 2 1 7 4 ESE 983,9 10 0,0
15.01.2020 09:00:00 -3,1 -3,4 4 2 7 4 SE 984,2 10 0,0
15.01.2020 08:00:00 -1,3 -2,0 5 3 14 8 SSE 984,0 10 0,0
15.01.2020 07:00:00 -0,6 -1,3 11 6 14 8 SSW 984,2 10 0,0
15.01.2020 06:00:00 -0,6 -1,3 8 4 14 8 SSW 984,1 10 0,0
15.01.2020 05:00:00 0,1 -0,8 9 5 18 10 SSW 984,1 10 0,0
15.01.2020 04:00:00 0,6 -0,4 9 5 22 12 SW 983,8 10 0,0
15.01.2020 03:00:00 0,6 -0,3 9 5 18 10 SW 983,6 10 0,0
15.01.2020 02:00:00 0,9 -0,3 15 8 25 14 SSW 983,8 10 0,0
15.01.2020 01:00:00 0,6 -0,3 13 7 18 10 SSW 983,5 10 0,0
15.01.2020 00:00:00 1,1 0,2 11 6 18 10 SSW 983,2 10 0,0
14.01.2020 23:00:00 1,5 0,5 13 7 22 12 SW 983,2 10 0,0
14.01.2020 22:00:00 1,2 0,6 11 6 25 14 SW 983,0 10 0,0
14.01.2020 21:00:00 1,3 0,7 18 10 29 16 SSW 982,9 10 0,0
14.01.2020 20:00:00 1,0 0,6 22 12 36 19 S 983,1 10 0,2
14.01.2020 19:00:00 0,8 0,2 28 15 43 23 S 983,7 5 0,3
14.01.2020 18:00:00 0,9 0,3 34 18 50 27 S 984,5 9 0,0
14.01.2020 17:00:00 1,1 0,5 34 18 54 29 S 986,0 10 0,0
14.01.2020 16:00:00 0,8 0,2 34 18 47 25 S 987,5 3,5 0,4
14.01.2020 15:00:00 1,4 0,5 31 17 47 25 S 989,5 10 0,0
14.01.2020 14:00:00 1,3 0,0 21 11 32 18 S 990,8 10 0,0
14.01.2020 13:00:00 0,1 -2,3 9 5 25 14 S 991,9 10 0,0
14.01.2020 12:00:00 -0,3 -3,8 16 9 29 16 S 992,7 10 0,0
14.01.2020 11:00:00 -0,4 -3,9 16 9 32 18 SSW 993,0 10 0,0

tt = Température de l'air
td = dewpoint
ff = Vitesse du vent
fx = gusts
dd = Direction du vent
ppp = reduced air pressure
vv = visibility
rr = Quantités de précipitations

stations d'obs. à proximité